Home > Weather > Pomona > Past weeks

Flag for U.S.A. Weather for the Past 2 Weeks in Pomona, California, U.S.A.

Now
53 °F

Clear.


Feels Like: 53 °F
Forecast: 51 / 85 °F
Wind: No wind

Location: Chino Airport

Current Time: Feb 13, 2016 at 11:14:06 PM

Latest Report: Feb 13, 2016 at 10:53 PM


Visibility: 4 mi

Pressure: 30.06 "Hg

Humidity: 74%

Dew point: 45 °F

Location of PomonaLocation

Historic Weather in Pomona — Graph

°F

Pomona Temperature Yesterday

Maximum temperature yesterday: 87 °F (at 1:53 PM)
Minimum temperature yesterday: 45 °F (at 6:53 AM)
Average temperature yesterday: 64 °F

High & Low Weather Summary for the Past Weeks

 TemperatureHumidityPressure
High90 °F (Feb 10, 2:53 PM)93% (Jan 30, 2:53 AM)30.37 "Hg (Jan 30, 2:53 AM)
Low32 °F (Feb 2, 5:53 AM)6% (Feb 7, 3:53 PM)29.59 "Hg (Jan 31, 1:53 PM)
Average59 °F46%30.12 "Hg
* Reported Jan 29 9:53 PM — Feb 13 9:53 PM, Pomona, Weather by CustomWeather, © 2016

Note: Actual official high and low records may vary slightly from our data, if they occured in-between our weather recording intervals... More about our weather records

Advertising

Pomona Weather History for the Previous 24 Hours

 ConditionsComfort  
Time TempWeatherWind HumidityBarometerVisibility
9:53 PM
Sat, Feb 13
56 °FClear.3 mph70%30.06 "Hg4 mi
8:53 PM56 °FClear.6 mph70%30.05 "Hg4 mi
7:53 PM58 °FClear.No wind65%30.06 "Hg5 mi
6:53 PM64 °FClear.No wind50%30.06 "Hg5 mi
5:53 PM66 °FPassing clouds.3 mph45%30.03 "Hg8 mi
4:53 PM71 °FPassing clouds.7 mph39%30.02 "Hg10 mi
3:53 PM77 °FPassing clouds.13 mph31%30.02 "Hg10 mi
3:02 PM80 °FSunny.13 mph30%30.03 "Hg6 mi
1:53 PM83 °FPassing clouds.13 mph23%30.02 "Hg10 mi
12:53 PM80 °FScattered clouds.3 mph20%30.03 "Hg10 mi
11:53 AM77 °FScattered clouds.No wind19%30.05 "Hg10 mi
10:53 AM71 °FScattered clouds.No wind26%30.09 "Hg10 mi
9:53 AM66 °FScattered clouds.No wind37%30.11 "Hg10 mi
8:53 AM59 °FScattered clouds.No wind49%30.12 "Hg10 mi
7:53 AM51 °FPassing clouds.No wind74%30.12 "Hg10 mi
6:53 AM45 °FPassing clouds.No wind82%30.12 "Hg10 mi
5:53 AM44 °FClear.No wind82%30.10 "Hg4 mi
4:53 AM47 °FClear.No wind80%30.09 "Hg5 mi
3:53 AM48 °FClear.No wind80%30.08 "Hg4 mi
2:53 AM50 °FClear.No wind74%30.08 "Hg5 mi
1:53 AM52 °FClear.No wind75%30.09 "Hg5 mi
12:53 AM50 °FClear.No wind74%30.09 "Hg4 mi
11:53 PM
Fri, Feb 12
51 °FClear.No wind71%30.10 "Hg5 mi
Weather by CustomWeather, © 2016

See weather overviewHow to use our weather pages